Glencoe, MN

2:32 PM CDT on September 20, 2017 (GMT -0500)
Glencoe Municipal

Weather History for KGYL - April, 2013

Change the Weather History Date:

Tuesday, April 2, 2013

  Actual Average (KHCD) Record (KHCD)
Temperature  
Mean Temperature 28 °F -  
Max Temperature 34 °F 49 °F 79 °F (1981)
Min Temperature 21 °F 29 °F 8 °F (1970)
Degree Days  
Heating Degree Days 38    
Moisture  
Dew Point 18 °F    
Average Humidity 68    
Maximum Humidity 87    
Minimum Humidity 43    
Precipitation  
Precipitation 0.00 in - - ()
Sea Level Pressure  
Sea Level Pressure 30.31 in    
Wind  
Wind Speed 7 mph (NW)    
Max Wind Speed 12 mph    
Max Gust Speed 21 mph    
Visibility 10 miles    
Events      
Averages and records for this station are not official NWS values.
T = Trace of Precipitation, MM = Missing Value Source: NWS Daily Summary

Daily Weather History Graph

Daily Weather History Graph

Search for Another Location

Airport or City:

Trip Planner

Search our weather history database for the weather conditions in past years. The results will help you decide how hot, cold, wet, or windy it might be!

Date:

Astronomy

Apr. 02, 2013 Rise Set
Actual Time 6:54 AM CDT 7:45 PM CDT
Civil Twilight 6:25 AM CDT 8:15 PM CDT
Nautical Twilight 5:49 AM CDT 8:50 PM CDT
Astronomical Twilight 5:13 AM CDT 9:27 PM CDT
Moon 2:01 AM CDT (4/2) 11:36 AM CDT (4/2)
Length of Visible Light 13h 50m
Length of Day
12h 50m
Waning Gibbous, 55% of the Moon is Illuminated
Apr 2
Waning Gibbous
Apr 2
Last Quarter
Apr 10
New
Apr 18
First Quarter
Apr 25
Full

Hourly Weather History & Observations

Time (CDT) Temp. Windchill Dew Point Humidity Pressure Visibility Wind Dir Wind Speed Gust Speed Precip Events Conditions
12:14 AM 23.9 °F 13.5 °F 18.3 °F 79% 30.26 in 10.0 mi WNW 10.4 mph - N/A   Clear
12:35 AM 23.5 °F 14.5 °F 18.1 °F 80% 30.26 in 10.0 mi West 8.1 mph - N/A   Clear
12:54 AM 23.4 °F 13.5 °F 18.1 °F 80% 30.26 in 10.0 mi WNW 9.2 mph - N/A   Clear
1:14 AM 23.4 °F 14.3 °F 18.1 °F 80% 30.26 in 10.0 mi WNW 8.1 mph - N/A   Clear
1:35 AM 23.0 °F 13.9 °F 18.1 °F 82% 30.26 in 10.0 mi West 8.1 mph - N/A   Clear
1:54 AM 23.0 °F 14.7 °F 18.0 °F 81% 30.27 in 10.0 mi West 6.9 mph - N/A   Clear
2:14 AM 22.6 °F 15.3 °F 18.0 °F 82% 30.27 in 10.0 mi West 5.8 mph - N/A   Clear
2:34 AM 22.5 °F 15.1 °F 17.6 °F 82% 30.27 in 10.0 mi West 5.8 mph - N/A   Clear
2:54 AM 22.1 °F 13.7 °F 17.6 °F 83% 30.26 in 10.0 mi West 6.9 mph - N/A   Clear
3:14 AM 22.1 °F 14.7 °F 17.6 °F 83% 30.26 in 10.0 mi WNW 5.8 mph - N/A   Clear
3:34 AM 22.1 °F 14.7 °F 17.8 °F 83% 30.26 in 10.0 mi WNW 5.8 mph - N/A   Clear
3:54 AM 21.9 °F 14.5 °F 17.6 °F 83% 30.25 in 10.0 mi West 5.8 mph - N/A   Clear
4:14 AM 21.9 °F 14.5 °F 17.8 °F 84% 30.25 in 10.0 mi West 5.8 mph - N/A   Clear
4:35 AM 21.9 °F 14.5 °F 17.4 °F 83% 30.26 in 10.0 mi West 5.8 mph - N/A   Clear
4:54 AM 21.7 °F 13.2 °F 17.4 °F 83% 30.26 in 10.0 mi WNW 6.9 mph - N/A   Clear
5:14 AM 21.6 °F 14.0 °F 17.4 °F 84% 30.26 in 10.0 mi WNW 5.8 mph - N/A   Clear
5:35 AM 21.6 °F 14.0 °F 17.4 °F 84% 30.27 in 10.0 mi WNW 5.8 mph - N/A   Clear
5:54 AM 21.4 °F 12.8 °F 17.1 °F 83% 30.27 in 10.0 mi West 6.9 mph - N/A   Clear
6:14 AM 21.2 °F 12.6 °F 17.1 °F 84% 30.27 in 10.0 mi West 6.9 mph - N/A   Clear
6:35 AM 21.2 °F 12.6 °F 17.1 °F 84% 30.28 in 10.0 mi WNW 6.9 mph - N/A   Clear
6:54 AM 21.2 °F 13.6 °F 17.1 °F 84% 30.29 in 10.0 mi WNW 5.8 mph - N/A   Clear
7:14 AM 21.2 °F 13.6 °F 17.4 °F 85% 30.29 in 10.0 mi WNW 5.8 mph - N/A   Clear
7:35 AM 21.7 °F 14.3 °F 17.6 °F 84% 30.30 in 10.0 mi WNW 5.8 mph - N/A   Clear
7:54 AM 22.5 °F 13.2 °F 18.0 °F 83% 30.31 in 10.0 mi WNW 8.1 mph - N/A   Clear
8:14 AM 23.0 °F 14.7 °F 18.3 °F 82% 30.32 in 10.0 mi WNW 6.9 mph - N/A   Clear
8:35 AM 23.9 °F 15.8 °F 18.1 °F 79% 30.32 in 10.0 mi WNW 6.9 mph - N/A   Clear
8:54 AM 24.8 °F 16.9 °F 19.2 °F 79% 30.32 in 10.0 mi NW 6.9 mph - N/A   Clear
9:35 AM 26.4 °F 18.0 °F 19.8 °F 76% 30.32 in 10.0 mi NW 8.1 mph - N/A   Clear
9:54 AM 27.0 °F 18.7 °F 18.9 °F 72% 30.32 in 10.0 mi NW 8.1 mph - N/A   Clear
10:14 AM 27.5 °F 18.6 °F 18.3 °F 68% 30.32 in 10.0 mi NW 9.2 mph - N/A   Clear
10:34 AM 28.4 °F 20.4 °F 17.1 °F 63% 30.32 in 10.0 mi NNW 8.1 mph - N/A   Clear
10:54 AM 29.1 °F 20.6 °F 15.6 °F 57% 30.33 in 10.0 mi NNW 9.2 mph - N/A   Clear
11:14 AM 29.7 °F 22.0 °F 15.8 °F 56% 30.33 in 10.0 mi WNW 8.1 mph - N/A   Clear
11:34 AM 30.0 °F 22.4 °F 14.7 °F 53% 30.33 in 10.0 mi NNW 8.1 mph - N/A   Clear
11:54 AM 31.1 °F 23.1 °F 16.0 °F 54% 30.33 in 10.0 mi WNW 9.2 mph - N/A   Clear
12:14 PM 30.9 °F 22.8 °F 15.4 °F 53% 30.33 in 10.0 mi NNW 9.2 mph - N/A   Clear
12:34 PM 31.6 °F 24.4 °F 15.4 °F 51% 30.33 in 10.0 mi NW 8.1 mph - N/A   Clear
12:54 PM 32.0 °F 24.2 °F 16.0 °F 52% 30.33 in 10.0 mi NNW 9.2 mph - N/A   Clear
1:15 PM 32.2 °F 24.4 °F 17.2 °F 54% 30.32 in 10.0 mi NNW 9.2 mph 17.3 mph N/A   Clear
1:34 PM 32.2 °F 23.2 °F 16.7 °F 53% 30.32 in 10.0 mi NW 11.5 mph - N/A   Clear
1:54 PM 32.9 °F 25.3 °F 16.7 °F 51% 30.32 in 10.0 mi NNW 9.2 mph - N/A   Clear
2:14 PM 33.4 °F 26.6 °F 17.2 °F 52% 30.32 in 10.0 mi NW 8.1 mph - N/A   Clear
2:34 PM 33.4 °F 26.6 °F 17.6 °F 52% 30.32 in 10.0 mi NW 8.1 mph 18.4 mph N/A   Clear
2:54 PM 33.4 °F 25.4 °F 16.9 °F 51% 30.32 in 10.0 mi NNW 10.4 mph 20.7 mph N/A   Clear
3:15 PM 34.2 °F 26.2 °F 17.1 °F 50% 30.32 in 10.0 mi NW 10.4 mph - N/A   Clear
3:34 PM 34.5 °F 27.9 °F 18.1 °F 51% 30.32 in 10.0 mi WNW 8.1 mph - N/A   Clear
3:54 PM 34.0 °F 25.5 °F 15.4 °F 47% 30.31 in 10.0 mi NW 11.5 mph 17.3 mph N/A   Clear
4:15 PM 34.3 °F 28.4 °F 16.0 °F 47% 30.31 in 10.0 mi NNW 6.9 mph - N/A   Clear
4:34 PM 34.3 °F 27.0 °F 16.0 °F 47% 30.31 in 10.0 mi NW 9.2 mph 16.1 mph N/A   Clear
4:49 PM 34.0 °F 27.2 °F 16.5 °F 49% 30.31 in 10.0 mi NW 8.1 mph - N/A   Clear
5:21 PM 34.5 °F 27.9 °F 16.5 °F 48% 30.31 in 10.0 mi NW 8.1 mph - N/A   Clear
5:34 PM 34.3 °F 28.4 °F 13.8 °F 43% 30.31 in 10.0 mi NNW 6.9 mph - N/A   Clear
5:54 PM 34.0 °F 26.6 °F 15.6 °F 47% 30.32 in 10.0 mi NNW 9.2 mph - N/A   Clear
6:14 PM 33.4 °F 26.6 °F 14.2 °F 45% 30.32 in 10.0 mi NNW 8.1 mph - N/A   Clear
6:34 PM 33.1 °F 26.1 °F 14.4 °F 46% 30.32 in 10.0 mi North 8.1 mph - N/A   Clear
6:54 PM 32.5 °F 25.5 °F 16.2 °F 51% 30.33 in 10.0 mi NW 8.1 mph - N/A   Clear
7:14 PM 32.0 °F 27.5 °F 16.3 °F 52% 30.32 in 10.0 mi NW 4.6 mph - N/A   Clear
7:35 PM 32.0 °F 27.5 °F 18.0 °F 56% 30.32 in 10.0 mi NW 4.6 mph - N/A   Clear
7:54 PM 31.3 °F 27.9 °F 18.5 °F 59% 30.32 in 10.0 mi NW 3.5 mph - N/A   Clear
8:14 PM 30.9 °F 27.5 °F 19.8 °F 63% 30.32 in 10.0 mi NW 3.5 mph - N/A   Clear
8:35 PM 30.6 °F 27.1 °F 19.8 °F 64% 30.32 in 10.0 mi NW 3.5 mph - N/A   Clear
8:54 PM 30.0 °F 26.5 °F 22.5 °F 73% 30.33 in 10.0 mi WNW 3.5 mph - N/A   Clear
9:14 PM 28.8 °F 25.0 °F 21.6 °F 74% 30.33 in 10.0 mi NW 3.5 mph - N/A   Clear
9:35 PM 28.4 °F - 22.6 °F 79% 30.34 in 10.0 mi Calm Calm - N/A   Clear
9:54 PM 28.8 °F - 20.3 °F 71% 30.34 in 10.0 mi Calm Calm - N/A   Clear
10:14 PM 28.9 °F - 21.9 °F 75% 30.34 in 10.0 mi Calm Calm - N/A   Clear
10:35 PM 27.3 °F - 22.1 °F 81% 30.35 in 10.0 mi Calm Calm - N/A   Clear
10:54 PM 25.9 °F - 20.5 °F 80% 30.35 in 10.0 mi Calm Calm - N/A   Clear
11:14 PM 27.3 °F - 21.4 °F 78% 30.34 in 10.0 mi Calm Calm - N/A   Clear
11:35 PM 26.4 °F - 22.5 °F 85% 30.34 in 10.0 mi Calm Calm - N/A   Clear
11:54 PM 26.2 °F - 22.8 °F 87% 30.34 in 10.0 mi Calm Calm - N/A   Clear